Weather reports worldwide

Advertisment
Bournemouth Airport, United Kingdom (3862): temperature & dewpoint: 24.05.2020 23:00:00 - 30.05.2020 23:00:00 (BST)Bournemouth Airport, United Kingdom (3862): temperature -20cm & temperature -100cm: 24.05.2020 23:00:00 - 30.05.2020 23:00:00 (BST)Bournemouth Airport, United Kingdom (3862): wind speed: 24.05.2020 23:00:00 - 30.05.2020 23:00:00 (BST)Bournemouth Airport, United Kingdom (3862): wind direction: 24.05.2020 23:00:00 - 30.05.2020 23:00:00 (BST)Bournemouth Airport, United Kingdom (3862): reduced air pressure: 24.05.2020 23:00:00 - 30.05.2020 23:00:00 (BST)Bournemouth Airport, United Kingdom (3862): visibility: 24.05.2020 23:00:00 - 30.05.2020 23:00:00 (BST)Bournemouth Airport, United Kingdom (3862): sunshine duration: 24.05.2020 23:00:00 - 30.05.2020 23:00:00 (BST)Bournemouth Airport, United Kingdom (3862): precipitation: 24.05.2020 23:00:00 - 30.05.2020 23:00:00 (BST)
Date & Time tt [°C] td [°C] tt -20cm [°C] tt -100cm [°C] ff [km/h] ff [kn] dd ppp [hPa] vv [km] sd [min] rr [mm]
30.05.2020 23:00:00 13,3 6,3 - - 4 2 NE 1021,0 40 0 0,0
30.05.2020 22:00:00 16,2 6,2 - - 5 3 ENE 1020,6 40 0 0,0
30.05.2020 21:00:00 19,8 4,7 - - 11 6 E 1020,1 40 42 0,0
30.05.2020 20:00:00 21,5 6,2 - - 15 8 SE 1019,9 40 60 0,0
30.05.2020 19:00:00 21,5 7,0 - - 15 8 SSE 1019,7 40 60 0,0
30.05.2020 18:00:00 22,4 7,0 - - 21 11 SSE 1019,8 40 60 0,0
30.05.2020 17:00:00 22,6 6,2 - - 16 9 SSE 1020,1 35 60 0,0
30.05.2020 16:00:00 22,7 5,3 - - 21 11 SSE 1020,6 40 60 0,0
30.05.2020 15:00:00 23,3 5,4 - - 18 10 S 1020,9 30 60 0,0
30.05.2020 14:00:00 24,1 5,2 - - 15 8 ESE 1021,3 29 60 0,0
30.05.2020 13:00:00 24,2 4,9 - - 15 8 ESE 1021,8 35 60 0,0
30.05.2020 12:00:00 22,8 7,0 - - 15 8 ESE 1022,1 10 60 0,0
30.05.2020 11:00:00 21,8 10,0 - - 13 7 E 1022,4 25 60 0,0
30.05.2020 10:00:00 19,7 10,4 17,7 14,0 13 7 E 1022,7 10 60 0,0
30.05.2020 09:00:00 17,2 10,0 - - 11 6 E 1022,7 10 60 0,0
30.05.2020 08:00:00 14,4 9,5 - - 9 5 NE 1023,0 28 60 0,0
30.05.2020 07:00:00 10,7 7,3 - - 8 4 N 1023,1 30 60 0,0
30.05.2020 06:00:00 7,4 3,9 - - 8 4 N 1023,1 35 6 0,0
30.05.2020 05:00:00 7,0 2,2 - - 9 5 N 1023,1 40 0 0,0
30.05.2020 04:00:00 7,2 2,0 - - 9 5 N 1023,5 45 0 0,0
30.05.2020 03:00:00 7,2 2,1 - - 5 3 NW 1023,7 35 0 0,0
30.05.2020 02:00:00 10,2 3,8 - - 8 4 NE 1023,8 35 0 0,0
30.05.2020 01:00:00 11,0 4,3 - - 8 4 ENE 1024,0 40 - 0,0
30.05.2020 00:00:00 14,5 4,9 - - 11 6 E 1024,0 40 0 0,0
29.05.2020 23:00:00 14,5 7,0 - - 5 3 E 1023,8 30 0 0,0
29.05.2020 22:00:00 15,3 4,6 - - 8 4 E 1023,8 40 0 0,0
29.05.2020 21:00:00 19,3 2,3 - - 11 6 E 1023,4 45 42 0,0
29.05.2020 20:00:00 20,5 4,5 - - 8 4 SE 1023,4 40 60 0,0
29.05.2020 19:00:00 20,9 4,8 - - 16 9 SSE 1023,5 40 60 0,0
29.05.2020 18:00:00 21,1 5,2 - - 16 9 SSE 1023,9 10 60 0,0
29.05.2020 17:00:00 21,9 6,9 - - 16 9 S 1024,2 10 60 0,0
29.05.2020 16:00:00 23,0 7,1 - - 21 11 SSE 1024,5 10 60 0,0
29.05.2020 15:00:00 23,7 6,2 - - 16 9 SE 1025,2 40 60 0,0
29.05.2020 14:00:00 22,2 2,6 - - 22 12 ESE 1025,9 10 60 0,0
29.05.2020 13:00:00 22,8 5,5 - - 22 12 E 1026,5 10 60 0,0
29.05.2020 12:00:00 21,8 6,0 - - 22 12 ESE 1027,1 30 60 0,0
29.05.2020 11:00:00 20,8 6,4 - - 21 11 E 1027,5 10 60 0,0
29.05.2020 10:00:00 19,5 7,9 17,4 13,9 16 9 E 1027,7 10 60 0,0
29.05.2020 09:00:00 17,6 8,1 - - 16 9 E 1027,7 10 60 0,0
29.05.2020 08:00:00 15,4 8,2 - - 15 8 E 1027,9 30 60 0,0
29.05.2020 07:00:00 12,9 7,7 - - 9 5 ENE 1027,9 30 54 0,0
29.05.2020 06:00:00 10,4 6,4 - - 8 4 ENE 1028,3 10 0 0,0
29.05.2020 05:00:00 9,8 5,6 - - 9 5 ENE 1028,3 30 0 0,0
29.05.2020 04:00:00 10,3 5,8 - - 8 4 ENE 1028,5 30 0 0,0
29.05.2020 03:00:00 11,2 5,7 - - 8 4 ENE 1028,8 30 0 0,0
29.05.2020 02:00:00 12,2 5,3 - - 9 5 E 1029,0 35 0 0,0
29.05.2020 01:00:00 12,0 3,5 - - 13 7 E 1029,3 45 - 0,0
29.05.2020 00:00:00 14,1 3,6 - - 15 8 E 1029,6 45 0 0,0
28.05.2020 23:00:00 14,8 4,6 - - 13 7 E 1029,7 45 0 0,0
28.05.2020 22:00:00 16,3 6,2 - - 9 5 E 1029,7 40 0 0,0
28.05.2020 21:00:00 18,3 4,7 - - 11 6 ESE 1029,4 45 24 0,0
28.05.2020 20:00:00 19,7 6,4 - - 11 6 SE 1029,4 40 60 0,0
28.05.2020 19:00:00 19,9 6,1 - - 18 10 SSE 1029,6 45 60 0,0
28.05.2020 18:00:00 20,4 6,3 - - 18 10 SSE 1029,8 40 60 0,0
28.05.2020 17:00:00 21,1 8,6 - - 16 9 S 1030,3 10 60 0,0
28.05.2020 16:00:00 21,8 8,9 - - 18 10 SE 1030,5 10 60 0,0
28.05.2020 15:00:00 22,9 7,2 - - 13 7 ENE 1031,1 10 60 0,0
28.05.2020 14:00:00 22,1 6,8 - - 16 9 ENE 1031,9 10 60 0,0
28.05.2020 13:00:00 21,7 9,4 - - 9 5 - 1032,4 10 60 0,0
28.05.2020 12:00:00 20,6 9,6 - - 13 7 SE 1033,2 10 60 0,0
28.05.2020 11:00:00 19,4 8,9 - - 13 7 E 1033,8 40 60 0,0
28.05.2020 10:00:00 18,8 8,2 17,2 13,7 15 8 ESE 1034,2 10 60 0,0
28.05.2020 09:00:00 17,4 8,1 - - 13 7 ESE 1034,4 45 60 0,0
28.05.2020 08:00:00 15,7 9,6 - - 11 6 E 1034,5 10 48 0,0
28.05.2020 07:00:00 12,2 10,3 - - 4 2 N 1034,8 35 18 0,0
28.05.2020 06:00:00 9,5 8,0 - - 8 4 N 1034,7 30 0 0,0
28.05.2020 05:00:00 9,2 7,9 - - 4 2 NNW 1034,5 30 0 0,0
28.05.2020 04:00:00 9,6 7,9 - - 5 3 NNW 1034,4 30 0 0,0
28.05.2020 03:00:00 10,2 8,2 - - 2 1 N 1034,6 30 0 0,0
28.05.2020 02:00:00 11,0 9,1 - - 4 2 NNE 1034,6 29 0 0,0
28.05.2020 01:00:00 10,8 8,7 - - 4 2 NE 1034,8 13 - 0,0
28.05.2020 00:00:00 11,9 9,4 - - 4 2 NNE 1034,7 24 0 0,0
27.05.2020 23:00:00 13,3 9,6 - - 2 1 ESE 1034,8 30 0 0,0
27.05.2020 22:00:00 15,3 10,5 - - 9 5 SSE 1034,8 35 0 0,0
27.05.2020 21:00:00 16,2 9,8 - - 8 4 S 1034,4 35 18 0,0
27.05.2020 20:00:00 17,3 8,9 - - 11 6 SSE 1034,0 35 54 0,0
27.05.2020 19:00:00 19,8 8,4 - - 13 7 S 1033,8 35 48 0,0
27.05.2020 18:00:00 21,2 8,8 - - 11 6 E 1033,8 10 60 0,0
27.05.2020 17:00:00 21,4 8,3 - - 15 8 SSE 1034,1 10 60 0,0
27.05.2020 16:00:00 22,3 7,5 - - 15 8 SSE 1034,4 10 60 0,0
27.05.2020 15:00:00 22,4 7,8 - - 15 8 S 1034,5 10 60 0,0
27.05.2020 14:00:00 21,9 8,0 - - 16 9 SSE 1034,9 10 60 0,0
27.05.2020 13:00:00 21,6 9,5 - - 16 9 SSE 1035,2 10 60 0,0
27.05.2020 12:00:00 21,8 9,9 - - 13 7 SSE 1035,4 35 60 0,0
27.05.2020 11:00:00 21,7 10,7 - - 9 5 SSE 1035,5 10 60 0,0
27.05.2020 10:00:00 20,4 10,6 16,9 13,7 5 3 E 1035,8 30 60 0,0
27.05.2020 09:00:00 19,2 11,1 - - 8 4 ENE 1035,8 10 60 0,0
27.05.2020 08:00:00 17,1 12,3 - - 9 5 NE 1035,8 30 60 0,0
27.05.2020 07:00:00 15,0 12,8 - - 4 2 N 1035,6 25 60 0,0
27.05.2020 06:00:00 11,7 10,6 - - 8 4 NNW 1035,4 19 0 0,0
27.05.2020 05:00:00 11,5 10,5 - - 4 2 N 1035,3 25 0 0,0
27.05.2020 04:00:00 11,9 10,7 - - 2 1 WNW 1035,0 25 0 0,0
27.05.2020 03:00:00 12,6 11,4 - - 2 1 NNW 1035,2 23 0 0,0
27.05.2020 02:00:00 13,1 11,5 - - 5 3 NNW 1035,3 25 0 0,0
27.05.2020 01:00:00 13,3 11,0 - - 4 2 WNW 1035,3 26 - 0,0
27.05.2020 00:00:00 14,5 11,3 - - 4 2 NNW 1035,3 29 0 0,0
26.05.2020 23:00:00 15,3 9,5 - - 5 3 NW 1035,2 30 0 0,0
26.05.2020 22:00:00 18,0 7,1 - - 5 3 WSW 1035,2 40 0 0,0
26.05.2020 21:00:00 20,8 4,8 - - 4 2 W 1034,9 45 18 0,0
26.05.2020 20:00:00 23,3 3,2 - - 13 7 NW 1034,7 35 60 0,0
26.05.2020 19:00:00 24,4 4,3 - - 9 5 W 1034,6 45 60 0,0
26.05.2020 18:00:00 23,5 9,6 - - 9 5 SSE 1034,8 10 60 0,0
26.05.2020 17:00:00 23,2 8,7 - - 13 7 SSE 1035,0 10 60 0,0
26.05.2020 16:00:00 23,4 9,2 - - 15 8 S 1035,3 10 60 0,0
26.05.2020 15:00:00 23,2 9,6 - - 16 9 S 1035,7 10 60 0,0
26.05.2020 14:00:00 23,4 9,4 - - 16 9 S 1035,7 35 60 0,0
26.05.2020 13:00:00 23,5 7,6 - - 9 5 SW 1035,9 40 60 0,0
26.05.2020 12:00:00 22,7 8,8 - - 9 5 WNW 1036,2 40 60 0,0
26.05.2020 11:00:00 21,3 8,4 - - 5 3 SW 1036,4 40 60 0,0
26.05.2020 10:00:00 20,4 9,9 16,5 13,4 8 4 NNW 1036,6 10 60 0,0
26.05.2020 09:00:00 17,4 9,3 - - 9 5 N 1036,9 10 60 0,0
26.05.2020 08:00:00 14,2 9,9 - - 4 2 N 1036,7 10 60 0,0
26.05.2020 07:00:00 10,3 8,4 - - 2 1 NW 1036,4 17 60 0,0
26.05.2020 06:00:00 6,3 4,9 - - 5 3 NW 1036,3 30 0 0,0
26.05.2020 05:00:00 6,4 4,4 - - 2 1 NNW 1035,8 40 0 0,0
26.05.2020 04:00:00 8,1 6,7 - - 4 2 NNW 1035,6 35 0 0,0
26.05.2020 03:00:00 7,8 6,1 - - 5 3 N 1035,6 40 0 0,0
26.05.2020 02:00:00 8,5 6,1 - - 0 0 N 1035,5 40 0 0,0
26.05.2020 01:00:00 9,7 6,6 - - 2 1 W 1035,5 40 - 0,0
26.05.2020 00:00:00 11,3 7,7 - - 4 2 NW 1035,5 40 0 0,0
25.05.2020 23:00:00 11,4 8,7 - - 4 2 NW 1035,3 30 0 0,0
25.05.2020 22:00:00 13,0 9,4 - - 2 1 SW 1035,1 35 0 0,0
25.05.2020 21:00:00 17,4 8,3 - - 4 2 S 1034,8 40 42 0,0
25.05.2020 20:00:00 19,4 7,5 - - 9 5 SSE 1034,4 45 60 0,0
25.05.2020 19:00:00 20,2 6,2 - - 11 6 SSE 1034,3 50 60 0,0
25.05.2020 18:00:00 20,8 6,7 - - 13 7 S 1034,5 10 60 0,0
25.05.2020 17:00:00 20,4 6,6 - - 16 9 S 1034,6 35 60 0,0
25.05.2020 16:00:00 20,9 7,1 - - 16 9 S 1034,7 10 60 0,0
25.05.2020 15:00:00 20,8 6,8 - - 16 9 SSE 1034,9 10 60 0,0
25.05.2020 14:00:00 21,2 6,4 - - 16 9 S 1034,9 10 60 0,0
25.05.2020 13:00:00 22,3 5,2 - - 13 7 S 1035,1 45 60 0,0
25.05.2020 12:00:00 21,3 5,7 - - 8 4 S 1035,3 45 60 0,0
25.05.2020 11:00:00 21,1 4,6 - - 9 5 S 1035,0 10 60 0,0
25.05.2020 10:00:00 19,7 7,8 16,0 13,4 5 3 E 1035,4 40 60 0,0
25.05.2020 09:00:00 17,3 7,0 - - 5 3 - 1035,5 10 60 0,0
25.05.2020 08:00:00 12,5 7,7 - - 5 3 - 1035,4 10 60 0,0
25.05.2020 07:00:00 8,4 5,5 - - 4 2 N 1035,4 35 60 0,0
25.05.2020 06:00:00 5,6 3,6 - - 5 3 N 1035,1 35 0 0,0
25.05.2020 05:00:00 4,4 2,7 - - 8 4 N 1034,9 35 0 0,0
25.05.2020 04:00:00 5,3 2,7 - - 5 3 NNW 1034,9 26 0 0,0
25.05.2020 03:00:00 6,6 4,0 - - 4 2 NNW 1034,5 30 0 0,0
25.05.2020 02:00:00 7,2 4,0 - - 5 3 N 1034,5 35 0 0,0
25.05.2020 01:00:00 8,1 3,8 - - 9 5 NW 1034,5 30 - 0,0
25.05.2020 00:00:00 9,3 2,8 - - 8 4 NNW 1034,5 45 0 0,0
24.05.2020 23:00:00 11,7 2,2 - - 11 6 NW 1034,4 50 0 0,0

tt = temperature
td = dewpoint
tt -20cm = temperature -20cm
tt -100cm = temperature -100cm
ff = wind speed
dd = wind direction
ppp = reduced air pressure
vv = visibility
sd = sunshine duration
rr = precipitation

Next stations